Litchfield, MN

2:20 PM CDT on April 27, 2017 (GMT -0500)
Litchfield Municipal

Weather History for KLJF - July, 2013

Change the Weather History Date:

Saturday, July 6, 2013

  Actual Average Record
Temperature  
Mean Temperature 78 °F -  
Max Temperature 86 °F 84 °F 100 °F (1988)
Min Temperature 71 °F 60 °F 45 °F (1959)
Cooling Degree Days 14    
Growing Degree Days 28 (Base 50)    
Moisture  
Dew Point 67 °F    
Average Humidity 69    
Maximum Humidity 89    
Minimum Humidity 54    
Precipitation  
Precipitation 0.00 in - - ()
Sea Level Pressure  
Sea Level Pressure 29.84 in    
Wind  
Wind Speed 3 mph (SSE)    
Max Wind Speed 10 mph    
Max Gust Speed 16 mph    
Visibility 10 miles    
Events Rain    
Averages and records for this station are not official NWS values.
T = Trace of Precipitation, MM = Missing Value Source: NWS Daily Summary

Daily Weather History Graph

Daily Weather History Graph

Search for Another Location

Airport or City:

Trip Planner

Search our weather history database for the weather conditions in past years. The results will help you decide how hot, cold, wet, or windy it might be!

Date:

Astronomy

Jul. 06, 2013 Rise Set
Actual Time 5:38 AM CDT 9:07 PM CDT
Civil Twilight 5:01 AM CDT 9:44 PM CDT
Nautical Twilight 4:12 AM CDT 10:32 PM CDT
Astronomical Twilight 3:09 AM CDT 11:34 PM CDT
Moon 4:27 AM CDT (7/6) 7:46 PM CDT (7/6)
Length of Visible Light 16h 42m
Length of Day
15h 29m
Waning Crescent, 2% of the Moon is Illuminated
Jul 6
Waning Crescent
Jul 8
New
Jul 15
First Quarter
Jul 22
Full
Jul 29
Last Quarter

Hourly Weather History & Observations

Time (CDT) Temp. Heat Index Dew Point Humidity Pressure Visibility Wind Dir Wind Speed Gust Speed Precip Events Conditions
12:13 AM 78.8 °F - 60.8 °F 54% 29.85 in 10.0 mi SSW 4.6 mph - N/A   Clear
12:33 AM 78.8 °F - 60.8 °F 54% 29.85 in 10.0 mi SSW 3.5 mph - N/A   Clear
12:52 AM 78.8 °F - 60.8 °F 54% 29.85 in 10.0 mi SSW 3.5 mph - N/A   Scattered Clouds
1:13 AM 77.0 °F - 62.6 °F 61% 29.85 in 10.0 mi South 3.5 mph - N/A   Clear
1:33 AM 77.0 °F - 62.6 °F 61% 29.85 in 10.0 mi South 4.6 mph - N/A   Clear
1:52 AM 77.0 °F - 62.6 °F 61% 29.85 in 10.0 mi SSE 4.6 mph - N/A   Clear
2:13 AM 77.0 °F - 62.6 °F 61% 29.85 in 10.0 mi SSE 3.5 mph - N/A   Clear
2:33 AM 75.2 °F - 62.6 °F 65% 29.85 in 10.0 mi SSE 3.5 mph - N/A   Clear
2:52 AM 75.2 °F - 62.6 °F 65% 29.85 in 10.0 mi Calm Calm - N/A   Clear
3:13 AM 75.2 °F - 62.6 °F 65% 29.85 in 10.0 mi South 3.5 mph - N/A   Clear
3:33 AM 75.2 °F - 62.6 °F 65% 29.85 in 10.0 mi South 3.5 mph - N/A   Clear
3:52 AM 75.2 °F - 62.6 °F 65% 29.85 in 10.0 mi South 4.6 mph - N/A   Clear
4:13 AM 73.4 °F - 60.8 °F 65% 29.85 in 10.0 mi South 3.5 mph - N/A   Clear
4:33 AM 73.4 °F - 60.8 °F 65% 29.84 in 10.0 mi South 3.5 mph - N/A   Clear
4:52 AM 73.4 °F - 60.8 °F 65% 29.84 in 10.0 mi South 6.9 mph - N/A   Clear
5:13 AM 73.4 °F - 60.8 °F 65% 29.85 in 10.0 mi South 4.6 mph - N/A   Clear
5:33 AM 73.4 °F - 60.8 °F 65% 29.85 in 10.0 mi South 3.5 mph - N/A   Clear
5:52 AM 73.4 °F - 60.8 °F 65% 29.85 in 10.0 mi South 3.5 mph - N/A   Clear
6:13 AM 73.4 °F - 60.8 °F 65% 29.86 in 10.0 mi Calm Calm - N/A   Clear
6:33 AM 73.4 °F - 60.8 °F 65% 29.87 in 10.0 mi South 3.5 mph - N/A   Clear
6:52 AM 73.4 °F - 60.8 °F 65% 29.87 in 10.0 mi Calm Calm - N/A   Clear
7:13 AM 73.4 °F - 60.8 °F 65% 29.87 in 10.0 mi Calm Calm - N/A   Scattered Clouds
7:33 AM 71.6 °F - 62.6 °F 73% 29.87 in 10.0 mi Calm Calm - N/A   Scattered Clouds
7:52 AM 71.6 °F - 62.6 °F 73% 29.87 in 10.0 mi South 4.6 mph - N/A   Light Drizzle
8:13 AM 73.4 °F - 62.6 °F 69% 29.87 in 10.0 mi Calm Calm - N/A   Clear
8:33 AM 73.4 °F - 62.6 °F 69% 29.87 in 10.0 mi Calm Calm - N/A   Light Drizzle
8:52 AM 73.4 °F - 64.4 °F 73% 29.87 in 10.0 mi Calm Calm - N/A   Light Drizzle
9:13 AM 71.6 °F - 64.4 °F 78% 29.86 in 7.0 mi SSE 3.5 mph - N/A Rain Light Rain
9:32 AM 71.6 °F - 66.2 °F 83% 29.86 in 10.0 mi SE 5.8 mph - N/A   Scattered Clouds
9:53 AM 73.4 °F - 66.2 °F 78% 29.85 in 10.0 mi SSE 5.8 mph - N/A   Clear
10:13 AM 75.2 °F - 66.2 °F 73% 29.86 in 10.0 mi SSE 5.8 mph - N/A   Clear
10:32 AM 75.2 °F - 66.2 °F 73% 29.86 in 10.0 mi SE 4.6 mph - N/A   Clear
10:53 AM 77.0 °F - 66.2 °F 69% 29.86 in 10.0 mi SE 5.8 mph - N/A   Clear
11:13 AM 78.8 °F - 66.2 °F 65% 29.85 in 10.0 mi SSE 8.1 mph - N/A   Clear
11:33 AM 78.8 °F - 66.2 °F 65% 29.84 in 10.0 mi SE 8.1 mph 16.1 mph N/A   Clear
11:53 AM 80.6 °F 82.7 °F 66.2 °F 61% 29.85 in 10.0 mi SSE 9.2 mph - N/A   Clear
12:13 PM 80.6 °F 82.7 °F 66.2 °F 61% 29.84 in 10.0 mi SE 8.1 mph - N/A   Clear
12:33 PM 80.6 °F 82.7 °F 66.2 °F 61% 29.84 in 10.0 mi SSE 8.1 mph 16.1 mph N/A   Clear
12:53 PM 80.6 °F 82.7 °F 66.2 °F 61% 29.84 in 10.0 mi SSE 9.2 mph - N/A   Clear
1:13 PM 82.4 °F 84.6 °F 66.2 °F 58% 29.83 in 10.0 mi SSE 10.4 mph 16.1 mph N/A   Clear
1:33 PM 82.4 °F 84.6 °F 66.2 °F 58% 29.82 in 10.0 mi SSE 6.9 mph - N/A   Clear
1:53 PM 82.4 °F 85.4 °F 68.0 °F 62% 29.82 in 10.0 mi SSE 5.8 mph - N/A   Clear
2:13 PM 82.4 °F 84.6 °F 66.2 °F 58% 29.82 in 10.0 mi SSE 8.1 mph - N/A   Clear
2:33 PM 82.4 °F 86.3 °F 69.8 °F 66% 29.83 in 10.0 mi Calm Calm - N/A   Clear
2:53 PM 82.4 °F 86.3 °F 69.8 °F 66% 29.83 in 10.0 mi SSE 3.5 mph - N/A   Clear
3:12 PM 82.4 °F 86.3 °F 69.8 °F 66% 29.83 in 10.0 mi Calm Calm - N/A   Clear
3:33 PM 82.4 °F 86.3 °F 69.8 °F 66% 29.83 in 10.0 mi Calm Calm - N/A   Clear
3:53 PM 82.4 °F 87.2 °F 71.6 °F 70% 29.82 in 10.0 mi Calm Calm - N/A   Clear
4:12 PM 82.4 °F 88.2 °F 73.4 °F 74% 29.82 in 10.0 mi Calm Calm - N/A   Clear
4:33 PM 82.4 °F 88.2 °F 73.4 °F 74% 29.82 in 10.0 mi Calm Calm - N/A   Clear
4:53 PM 84.2 °F 90.9 °F 73.4 °F 70% 29.82 in 10.0 mi Calm Calm - N/A   Clear
5:13 PM 82.4 °F 89.5 °F 75.2 °F 79% 29.81 in 7.0 mi Calm Calm - N/A Rain Light Rain
5:33 PM 84.2 °F 92.3 °F 75.2 °F 74% 29.81 in 10.0 mi ESE 3.5 mph - N/A   Clear
5:52 PM 84.2 °F 92.3 °F 75.2 °F 74% 29.80 in 10.0 mi Calm Calm - N/A   Clear
6:13 PM 86.0 °F 95.1 °F 75.2 °F 70% 29.80 in 10.0 mi ESE 3.5 mph - N/A   Clear
6:33 PM 84.2 °F 92.3 °F 75.2 °F 74% 29.80 in 10.0 mi Calm Calm - N/A   Clear
6:52 PM 84.2 °F 92.3 °F 75.2 °F 74% 29.80 in 10.0 mi Calm Calm - N/A   Clear
7:13 PM 84.2 °F 92.3 °F 75.2 °F 74% 29.80 in 10.0 mi Calm Calm - N/A   Clear
7:33 PM 82.4 °F 89.5 °F 75.2 °F 79% 29.80 in 10.0 mi Calm Calm - N/A   Clear
7:52 PM 82.4 °F 90.9 °F 77.0 °F 84% 29.80 in 10.0 mi Calm Calm - N/A   Clear
8:13 PM 80.6 °F 87.1 °F 77.0 °F 89% 29.80 in 10.0 mi Calm Calm - N/A   Clear
8:33 PM 80.6 °F 86.2 °F 75.2 °F 84% 29.81 in 10.0 mi Calm Calm - N/A   Clear
8:52 PM 80.6 °F 86.2 °F 75.2 °F 84% 29.81 in 10.0 mi Calm Calm - N/A   Clear
9:13 PM 80.6 °F 85.4 °F 73.4 °F 79% 29.81 in 10.0 mi SSE 3.5 mph - N/A   Clear
9:33 PM 80.6 °F 84.6 °F 71.6 °F 74% 29.82 in 10.0 mi SSE 4.6 mph - N/A   Clear
9:52 PM 80.6 °F 84.6 °F 71.6 °F 74% 29.82 in 10.0 mi Calm Calm - N/A   Clear
10:13 PM 80.6 °F 84.6 °F 71.6 °F 74% 29.83 in 10.0 mi South 3.5 mph - N/A   Clear
10:33 PM 80.6 °F 83.9 °F 69.8 °F 70% 29.83 in 10.0 mi Calm Calm - N/A   Clear
10:52 PM 80.6 °F 83.9 °F 69.8 °F 70% 29.84 in 10.0 mi Calm Calm - N/A   Clear
11:13 PM 80.6 °F 83.9 °F 69.8 °F 70% 29.84 in 10.0 mi SSE 3.5 mph - N/A   Clear
11:33 PM 80.6 °F 83.9 °F 69.8 °F 70% 29.83 in 10.0 mi Calm Calm - N/A   Clear
11:52 PM 80.6 °F 83.9 °F 69.8 °F 70% 29.83 in 10.0 mi Calm Calm - N/A   Clear